| time (UTC) | temp C | wind direction | speed KPH | gust KPH | rain 1hr cm | rain 24hr cm | rain mn cm | humidity % | barometer mb |
| 20260506103317 | 16 | 1 | 8.0 | 0.0 | 1.12 | 0.00 | 0.00 | 35 | |
| 20260506102817 | 16 | 347 | 16.1 | 0.0 | 1.12 | 0.00 | 0.00 | 35 | |
| 20260506102317 | 16 | 1 | 0.0 | 0.0 | 1.12 | 0.00 | 0.00 | 35 | |
| 20260506101818 | 16 | 301 | 0.0 | 0.0 | 1.12 | 0.00 | 0.00 | 35 | |
| 20260506101318 | 17 | 322 | 14.5 | 0.0 | 1.12 | 0.00 | 0.00 | 34 | |
| 20260506100817 | 17 | 300 | 14.5 | 0.0 | 1.12 | 0.00 | 0.00 | 34 | |
| 20260506100318 | 17 | 283 | 27.4 | 0.0 | 1.12 | 0.00 | 0.00 | 34 | |
| 20260506095818 | 17 | 312 | 14.5 | 0.0 | 1.12 | 0.00 | 0.00 | 34 | |
| 20260506095317 | 17 | 302 | 9.7 | 0.0 | 1.12 | 0.00 | 0.00 | 34 | |
| 20260506094818 | 17 | 354 | 9.7 | 0.0 | 1.12 | 0.00 | 0.00 | 34 | |
| 20260506093817 | 17 | 319 | 11.3 | 0.0 | 1.12 | 0.00 | 0.00 | 33 | |
| 20260506093318 | 17 | 350 | 11.3 | 0.0 | 1.12 | 0.00 | 0.00 | 33 | |
| 20260506092817 | 17 | 323 | 9.7 | 0.0 | 1.12 | 0.00 | 0.00 | 33 | |
| 20260506092317 | 17 | 353 | 11.3 | 0.0 | 1.12 | 0.00 | 0.00 | 33 | |
| 20260506091817 | 17 | 314 | 17.7 | 0.0 | 1.12 | 0.00 | 0.00 | 33 | |
| 20260506091317 | 17 | 278 | 14.5 | 0.0 | 1.12 | 0.00 | 0.00 | 33 | |
| 20260506090817 | 17 | 302 | 4.8 | 0.0 | 1.12 | 0.00 | 0.00 | 34 | |
| 20260506090318 | 17 | 359 | 8.0 | 0.0 | 1.12 | 0.00 | 0.00 | 34 | |
| 20260506085817 | 17 | 359 | 4.8 | 0.0 | 1.12 | 0.00 | 0.00 | 34 | |
| 20260506085317 | 17 | 322 | 11.3 | 0.0 | 1.12 | 0.00 | 0.00 | 34 | |
| 20260506084817 | 17 | 283 | 12.9 | 0.0 | 1.12 | 0.00 | 0.00 | 34 | |
| 20260506084317 | 17 | 307 | 16.1 | 0.0 | 1.12 | 0.00 | 0.00 | 34 | |
| 20260506083817 | 17 | 53 | 9.7 | 0.0 | 1.12 | 0.00 | 0.00 | 33 | |
| 20260506083318 | 18 | 350 | 4.8 | 0.0 | 1.12 | 0.00 | 0.00 | 33 | |
| 20260506082817 | 18 | 319 | 12.9 | 0.0 | 1.12 | 0.00 | 0.00 | 32 | |
| 20260506082317 | 18 | 319 | 0.0 | 0.0 | 1.12 | 0.00 | 0.00 | 31 | |
| 20260506081318 | 18 | 312 | 12.9 | 0.0 | 1.12 | 0.00 | 0.00 | 28 | |
| 20260506080818 | 18 | 332 | 0.0 | 0.0 | 1.12 | 0.00 | 0.00 | 26 | |
| 20260506080319 | 18 | 315 | 8.0 | 0.0 | 1.12 | 0.00 | 0.00 | 26 | |
| 20260506073318 | 20 | 266 | 8.0 | 0.0 | 1.12 | 0.00 | 0.00 | 23 | |
| 20260506072818 | 20 | 340 | 9.7 | 0.0 | 1.12 | 0.00 | 0.00 | 23 | |
| 20260506072318 | 20 | 308 | 19.3 | 0.0 | 1.12 | 0.00 | 0.00 | 23 | |
| 20260506071818 | 20 | 260 | 11.3 | 0.0 | 1.12 | 0.00 | 0.00 | 23 | |
| 20260506071318 | 20 | 273 | 12.9 | 0.0 | 1.12 | 0.00 | 0.00 | 23 | |
| 20260506070817 | 20 | 180 | 11.3 | 0.0 | 1.12 | 0.00 | 0.00 | 23 | |
| 20260506070318 | 20 | 1 | 0.0 | 0.0 | 1.12 | 0.00 | 0.00 | 23 | |
| 20260506062318 | 20 | 281 | 16.1 | 0.0 | 1.12 | 0.00 | 0.00 | 23 | |
| 20260506061818 | 20 | 314 | 16.1 | 0.0 | 1.12 | 0.00 | 0.00 | 22 | |
| 20260506061319 | 20 | 283 | 14.5 | 0.0 | 1.12 | 0.00 | 0.00 | 22 | |
| 20260506060818 | 20 | 210 | 16.1 | 0.0 | 1.12 | 0.00 | 0.00 | 22 | |
| 20260506060318 | 20 | 256 | 17.7 | 0.0 | 1.12 | 0.00 | 0.00 | 21 | |
| 20260506051318 | 21 | 262 | 12.9 | 0.0 | 1.12 | 0.00 | 0.00 | 21 | |
| 20260506050818 | 21 | 225 | 22.5 | 0.0 | 1.12 | 0.00 | 0.00 | 21 | |
| 20260506050318 | 21 | 248 | 17.7 | 0.0 | 1.12 | 0.00 | 0.00 | 20 | |
| 20260506044818 | 21 | 218 | 24.1 | 0.0 | 1.12 | 0.00 | 0.00 | 19 | |
| 20260506044318 | 21 | 253 | 17.7 | 0.0 | 1.12 | 0.00 | 0.00 | 18 | |
| 20260506043818 | 21 | 294 | 27.4 | 0.0 | 1.12 | 0.00 | 0.00 | 18 | |
| 20260506043318 | 21 | 248 | 16.1 | 0.0 | 1.12 | 0.00 | 0.00 | 18 | |
| 20260506042818 | 21 | 240 | 19.3 | 0.0 | 1.12 | 0.00 | 0.00 | 18 | |
| 20260506042318 | 21 | 246 | 14.5 | 0.0 | 1.12 | 0.00 | 0.00 | 17 | |
| 20260506041818 | 21 | 280 | 8.0 | 0.0 | 1.12 | 0.00 | 0.00 | 17 | |
| 20260506041318 | 21 | 240 | 16.1 | 0.0 | 1.12 | 0.00 | 0.00 | 17 | |
| 20260506040818 | 22 | 211 | 9.7 | 0.0 | 1.12 | 0.00 | 0.00 | 16 | |
| 20260506040318 | 22 | 236 | 29.0 | 0.0 | 1.12 | 0.00 | 0.00 | 16 | |
| 20260506035818 | 22 | 245 | 11.3 | 0.0 | 1.12 | 0.00 | 0.00 | 15 | |
| 20260506035318 | 22 | 266 | 22.5 | 0.0 | 1.12 | 0.00 | 0.00 | 15 | |
| 20260506034818 | 22 | 253 | 14.5 | 0.0 | 1.12 | 0.00 | 0.00 | 15 | |
| 20260506034319 | 22 | 266 | 14.5 | 0.0 | 1.12 | 0.00 | 0.00 | 15 | |
| 20260506033818 | 22 | 300 | 11.3 | 0.0 | 1.12 | 0.00 | 0.00 | 16 | |
| 20260506033319 | 22 | 287 | 14.5 | 0.0 | 1.12 | 0.00 | 0.00 | 17 | |
| 20260506032818 | 22 | 226 | 6.4 | 0.0 | 1.12 | 0.00 | 0.00 | 18 | |
| 20260506032318 | 22 | 270 | 9.7 | 0.0 | 1.12 | 0.00 | 0.00 | 18 | |
| 20260506031818 | 22 | 271 | 27.4 | 0.0 | 1.12 | 0.00 | 0.00 | 17 | |
| 20260506031318 | 22 | 14 | 12.9 | 0.0 | 1.12 | 0.00 | 0.00 | 17 | |
| 20260506030818 | 22 | 207 | 11.3 | 0.0 | 1.12 | 0.00 | 0.00 | 17 | |
| 20260506030318 | 22 | 217 | 12.9 | 0.0 | 1.12 | 0.00 | 0.00 | 17 | |
| 20260506025818 | 22 | 1 | 19.3 | 0.0 | 1.12 | 0.00 | 0.00 | 17 | |
| 20260506025319 | 22 | 291 | 8.0 | 0.0 | 1.12 | 0.00 | 0.00 | 17 | |
| 20260506024818 | 22 | 276 | 8.0 | 0.0 | 1.12 | 0.00 | 0.00 | 18 | |
| 20260506024318 | 22 | 197 | 25.7 | 0.0 | 1.12 | 0.00 | 0.00 | 18 | |
| 20260506023818 | 23 | 266 | 6.4 | 0.0 | 1.12 | 0.00 | 0.00 | 19 | |
| 20260506023318 | 23 | 339 | 9.7 | 0.0 | 1.12 | 0.00 | 0.00 | 19 | |
| 20260506022818 | 23 | 263 | 19.3 | 0.0 | 1.12 | 0.00 | 0.00 | 19 | |
| 20260506022318 | 23 | 252 | 0.0 | 0.0 | 1.12 | 0.00 | 0.00 | 19 | |
| 20260506021818 | 23 | 323 | 12.9 | 0.0 | 1.12 | 0.00 | 0.00 | 19 | |
| 20260506021318 | 23 | 271 | 3.2 | 0.0 | 1.12 | 0.00 | 0.00 | 19 | |
| 20260506020818 | 23 | 287 | 8.0 | 0.0 | 1.12 | 0.00 | 0.00 | 18 | |
| 20260506020318 | 23 | 242 | 16.1 | 0.0 | 1.12 | 0.00 | 0.00 | 18 | |
| 20260506015818 | 23 | 332 | 11.3 | 0.0 | 1.12 | 0.00 | 0.00 | 18 | |
| 20260506015318 | 23 | 264 | 0.0 | 0.0 | 1.12 | 0.00 | 0.00 | 18 | |
| 20260506014818 | 23 | 203 | 25.7 | 0.0 | 1.12 | 0.00 | 0.00 | 18 | |
| 20260506014318 | 23 | 217 | 17.7 | 0.0 | 1.12 | 0.00 | 0.00 | 18 | |
| 20260506013818 | 23 | 293 | 12.9 | 0.0 | 1.12 | 0.00 | 0.00 | 18 | |
| 20260506013318 | 23 | 270 | 12.9 | 0.0 | 1.12 | 0.00 | 0.00 | 13 | |
| 20260506012818 | 23 | 248 | 4.8 | 0.0 | 1.12 | 0.00 | 0.00 | 13 | |
| 20260506012318 | 23 | 249 | 14.5 | 0.0 | 1.12 | 0.00 | 0.00 | 13 | |
| 20260506011818 | 23 | 273 | 16.1 | 0.0 | 1.12 | 0.00 | 0.00 | 13 | |
| 20260506011319 | 24 | 281 | 9.7 | 0.0 | 1.12 | 0.00 | 0.00 | 14 | |
| 20260506010818 | 24 | 250 | 12.9 | 0.0 | 1.12 | 0.00 | 0.00 | 15 | |
| 20260506010318 | 24 | 238 | 17.7 | 0.0 | 1.12 | 0.00 | 0.00 | 15 | |
| 20260506005818 | 24 | 177 | 24.1 | 0.0 | 1.12 | 0.00 | 0.00 | 15 | |
| 20260506005318 | 24 | 215 | 11.3 | 0.0 | 1.12 | 0.00 | 0.00 | 20 | |
| 20260506004818 | 24 | 231 | 8.0 | 0.0 | 1.12 | 0.00 | 0.00 | 15 | |
| 20260506004318 | 24 | 256 | 14.5 | 0.0 | 1.12 | 0.00 | 0.00 | 20 | |
| 20260506003818 | 24 | 314 | 11.3 | 0.0 | 1.12 | 0.00 | 0.00 | 20 | |
| 20260506003318 | 24 | 267 | 16.1 | 0.0 | 1.12 | 0.00 | 0.00 | 20 | |
| 20260506002818 | 24 | 293 | 12.9 | 0.0 | 1.12 | 0.00 | 0.00 | 20 | |
| 20260506002318 | 24 | 243 | 25.7 | 0.0 | 1.12 | 0.00 | 0.00 | 15 | |
| 20260506001818 | 24 | 238 | 16.1 | 0.0 | 1.12 | 0.00 | 0.00 | 17 | |
| 20260506001319 | 24 | 284 | 4.8 | 0.0 | 1.12 | 0.00 | 0.00 | 23 | |
| 20260506000818 | 24 | 359 | 4.8 | 0.0 | 1.12 | 0.00 | 0.00 | 23 | |
| 20260506000318 | 24 | 307 | 12.9 | 0.0 | 1.12 | 0.00 | 0.00 | 23 | |
| 20260505235819 | 24 | 359 | 9.7 | 0.0 | 1.12 | 0.00 | 0.00 | 24 | |
| 20260505235318 | 24 | 250 | 17.7 | 0.0 | 1.12 | 0.00 | 0.00 | 24 | |
| 20260505234819 | 24 | 294 | 9.7 | 0.0 | 1.12 | 0.00 | 0.00 | 24 | |
| 20260505234319 | 24 | 325 | 16.1 | 0.0 | 1.12 | 0.00 | 0.00 | 24 | |
| 20260505233818 | 24 | 250 | 14.5 | 0.0 | 1.12 | 0.00 | 0.00 | 24 | |
| 20260505233318 | 24 | 323 | 11.3 | 0.0 | 1.12 | 0.00 | 0.00 | 25 | |
| 20260505232818 | 24 | 291 | 9.7 | 0.0 | 1.12 | 0.00 | 0.00 | 26 | |
| 20260505232318 | 24 | 301 | 6.4 | 0.0 | 1.12 | 0.00 | 0.00 | 27 | |
| 20260505231818 | 24 | 318 | 0.0 | 0.0 | 1.12 | 0.00 | 0.00 | 27 | |
| 20260505231318 | 24 | 20 | 12.9 | 0.0 | 1.12 | 0.00 | 0.00 | 21 | |
| 20260505230818 | 24 | 345 | 6.4 | 0.0 | 1.12 | 0.00 | 0.00 | 22 | |
| 20260505230318 | 24 | 263 | 0.0 | 0.0 | 1.12 | 0.00 | 0.00 | 22 | |
| 20260505225818 | 24 | 228 | 0.0 | 0.0 | 1.12 | 0.00 | 0.00 | 16 | |
| 20260505225318 | 23 | 333 | 16.1 | 0.0 | 1.12 | 0.00 | 0.00 | 16 | |
| 20260505224817 | 24 | 255 | 12.9 | 0.0 | 1.12 | 0.00 | 0.00 | 22 | |
| 20260505224318 | 24 | 307 | 11.3 | 0.0 | 1.12 | 0.00 | 0.00 | 28 | |
| 20260505223818 | 24 | 249 | 6.4 | 0.0 | 1.12 | 0.00 | 0.00 | 28 | |
| 20260505223317 | 24 | 284 | 12.9 | 0.0 | 1.12 | 0.00 | 0.00 | 28 | |
| 20260505222817 | 24 | 300 | 8.0 | 0.0 | 1.12 | 0.00 | 0.00 | 28 | |
| 20260505222317 | 24 | 300 | 14.5 | 0.0 | 1.12 | 0.00 | 0.00 | 28 | |
| 20260505221817 | 24 | 312 | 24.1 | 0.0 | 1.12 | 0.00 | 0.00 | 28 | |
| 20260505221319 | 24 | 332 | 19.3 | 0.0 | 1.12 | 0.00 | 0.00 | 29 | |
| 20260505220819 | 25 | 318 | 19.3 | 0.0 | 1.12 | 0.00 | 0.00 | 27 | |
| 20260505220817 | 24 | 259 | 6.4 | 0.0 | 1.12 | 0.00 | 0.00 | 28 | |
| 20260505220317 | 25 | 318 | 19.3 | 0.0 | 1.12 | 0.00 | 0.00 | 27 | |
| 20260505215819 | 25 | 221 | 16.1 | 0.0 | 1.12 | 0.00 | 0.00 | 20 | |
| 20260505215319 | 25 | 264 | 0.0 | 0.0 | 1.12 | 0.00 | 0.00 | 21 | |
| 20260505214818 | 25 | 316 | 9.7 | 0.0 | 1.12 | 0.00 | 0.00 | 21 | |
| 20260505214318 | 25 | 276 | 22.5 | 0.0 | 1.12 | 0.00 | 0.00 | 22 | |
| 20260505213818 | 24 | 338 | 11.3 | 0.0 | 1.12 | 0.00 | 0.00 | 22 | |
| 20260505213317 | 24 | 269 | 8.0 | 0.0 | 1.12 | 0.00 | 0.00 | 29 | |
| 20260505212817 | 24 | 4 | 6.4 | 0.0 | 1.12 | 0.00 | 0.00 | 29 | |
| 20260505212318 | 24 | 308 | 25.7 | 0.0 | 1.12 | 0.00 | 0.00 | 31 | |
| 20260505211818 | 23 | 278 | 9.7 | 0.0 | 1.12 | 0.00 | 0.00 | 31 | |
| 20260505211318 | 23 | 302 | 12.9 | 0.0 | 1.12 | 0.00 | 0.00 | 31 | |
| 20260505210817 | 23 | 328 | 11.3 | 0.0 | 1.12 | 0.00 | 0.00 | 30 | |
| 20260505210317 | 23 | 0 | 8.0 | 0.0 | 1.12 | 0.00 | 0.00 | 31 | |
| 20260505205817 | 23 | 325 | 12.9 | 0.0 | 1.12 | 0.00 | 0.00 | 30 | |
| 20260505205318 | 24 | 8 | 11.3 | 0.0 | 1.12 | 0.00 | 0.00 | 29 | |
| 20260505204818 | 24 | 293 | 8.0 | 0.0 | 1.12 | 0.00 | 0.00 | 30 | |
| 20260505204317 | 24 | 269 | 0.0 | 0.0 | 1.12 | 0.00 | 0.00 | 29 | |
| 20260505203817 | 24 | 354 | 9.7 | 0.0 | 1.12 | 0.00 | 0.00 | 30 | |
| 20260505203318 | 24 | 359 | 9.7 | 0.0 | 1.12 | 0.00 | 0.00 | 31 | |
| 20260505202818 | 23 | 326 | 4.8 | 0.0 | 1.12 | 0.00 | 0.00 | 32 | |
| 20260505202317 | 23 | 359 | 4.8 | 0.0 | 1.12 | 0.00 | 0.00 | 32 | |
| 20260505201818 | 23 | 318 | 4.8 | 0.0 | 1.12 | 0.00 | 0.00 | 31 | |
| 20260505201318 | 23 | 15 | 6.4 | 0.0 | 1.12 | 0.00 | 0.00 | 32 | |
| 20260505200317 | 23 | 20 | 16.1 | 0.0 | 1.12 | 0.00 | 0.00 | 32 | |
| 20260505195818 | 23 | 263 | 6.4 | 0.0 | 1.12 | 0.00 | 0.00 | 32 | |
| 20260505195318 | 23 | 13 | 8.0 | 0.0 | 1.12 | 0.00 | 0.00 | 31 | |
| 20260505194817 | 23 | 188 | 11.3 | 0.0 | 1.12 | 0.00 | 0.00 | 31 | |
| 20260505194318 | 23 | 312 | 11.3 | 0.0 | 1.12 | 0.00 | 0.00 | 30 | |
| 20260505193818 | 23 | 188 | 8.0 | 0.0 | 1.12 | 0.00 | 0.00 | 29 | |
| 20260505193317 | 24 | 233 | 16.1 | 0.0 | 1.12 | 0.00 | 0.00 | 29 | |
| 20260505192818 | 23 | 262 | 9.7 | 0.0 | 1.12 | 0.00 | 0.00 | 29 | |
| 20260505192317 | 23 | 215 | 12.9 | 0.0 | 1.12 | 0.00 | 0.00 | 29 | |
| 20260505191817 | 23 | 301 | 19.3 | 0.0 | 1.12 | 0.00 | 0.00 | 30 | |
| 20260505191318 | 23 | 287 | 29.0 | 0.0 | 1.12 | 0.00 | 0.00 | 30 | |
| 20260505190817 | 22 | 248 | 8.0 | 0.0 | 1.12 | 0.00 | 0.00 | 30 | |
| 20260505190318 | 22 | 304 | 9.7 | 0.0 | 1.12 | 0.00 | 0.00 | 30 | |
| 20260505185818 | 22 | 194 | 19.3 | 0.0 | 1.12 | 0.00 | 0.00 | 29 | |
| 20260505185318 | 23 | 252 | 17.7 | 0.0 | 1.12 | 0.00 | 0.00 | 28 | |
| 20260505184818 | 23 | 204 | 20.9 | 0.0 | 1.12 | 0.00 | 0.00 | 28 | |
| 20260505184317 | 23 | 228 | 20.9 | 0.0 | 1.12 | 0.00 | 0.00 | 27 | |
| 20260505183818 | 23 | 221 | 27.4 | 0.0 | 1.12 | 0.00 | 0.00 | 27 | |
| 20260505183318 | 23 | 180 | 27.4 | 0.0 | 1.12 | 0.00 | 0.00 | 28 | |
| 20260505182818 | 23 | 276 | 19.3 | 0.0 | 1.12 | 0.00 | 0.00 | 27 | |
| 20260505182318 | 23 | 295 | 8.0 | 0.0 | 1.12 | 0.00 | 0.00 | 27 | |
| 20260505181817 | 23 | 314 | 14.5 | 0.0 | 1.12 | 0.00 | 0.00 | 27 | |
| 20260505181319 | 23 | 288 | 8.0 | 0.0 | 1.12 | 0.00 | 0.00 | 28 | |
| 20260505180818 | 24 | 14 | 0.0 | 0.0 | 1.12 | 0.00 | 0.00 | 28 | |
| 20260505180318 | 23 | 11 | 11.3 | 0.0 | 1.12 | 0.00 | 0.00 | 28 | |
| 20260505175818 | 23 | 305 | 8.0 | 0.0 | 1.12 | 0.00 | 0.00 | 29 | |
| 20260505175318 | 23 | 248 | 14.5 | 0.0 | 1.12 | 0.00 | 0.00 | 29 | |
| 20260505174818 | 23 | 288 | 0.0 | 0.0 | 1.12 | 0.00 | 0.00 | 28 | |
| 20260505174318 | 23 | 269 | 16.1 | 0.0 | 1.12 | 0.00 | 0.00 | 29 | |
| 20260505173818 | 23 | 236 | 16.1 | 0.0 | 1.12 | 0.00 | 0.00 | 30 | |
| 20260505173319 | 23 | 194 | 9.7 | 0.0 | 1.12 | 0.00 | 0.00 | 31 | |
| 20260505172818 | 23 | 253 | 12.9 | 0.0 | 1.12 | 0.00 | 0.00 | 33 | |
| 20260505172318 | 22 | 319 | 9.7 | 0.0 | 1.12 | 0.00 | 0.00 | 33 | |
| 20260505171818 | 22 | 224 | 8.0 | 0.0 | 1.12 | 0.00 | 0.00 | 34 | |
| 20260505171318 | 22 | 235 | 12.9 | 0.0 | 1.12 | 0.00 | 0.00 | 35 | |
| 20260505170817 | 21 | 240 | 14.5 | 0.0 | 1.12 | 0.00 | 0.00 | 35 | |
| 20260505170319 | 21 | 314 | 0.0 | 0.0 | 1.12 | 0.00 | 0.00 | 36 | |
| 20260505165817 | 21 | 263 | 9.7 | 0.0 | 1.12 | 0.00 | 0.00 | 36 | |
| 20260505165318 | 20 | 273 | 4.8 | 0.0 | 1.12 | 0.00 | 0.00 | 37 | |
| 20260505164817 | 20 | 305 | 0.0 | 0.0 | 1.12 | 0.00 | 0.00 | 36 | |
| 20260505164318 | 20 | 204 | 17.7 | 0.0 | 1.12 | 0.00 | 0.00 | 36 | |
| 20260505163818 | 21 | 255 | 11.3 | 0.0 | 1.12 | 0.00 | 0.00 | 35 | |
| 20260505163318 | 21 | 179 | 4.8 | 0.0 | 1.12 | 0.00 | 0.00 | 35 | |
| 20260505162818 | 21 | 267 | 8.0 | 0.0 | 1.12 | 0.00 | 0.00 | 35 | |
| 20260505162317 | 21 | 120 | 0.0 | 0.0 | 1.12 | 0.00 | 0.00 | 37 | |
| 20260505161819 | 20 | 120 | 0.0 | 0.0 | 1.12 | 0.00 | 0.00 | 37 | |
| 20260505161318 | 20 | 204 | 6.4 | 0.0 | 1.12 | 0.00 | 0.00 | 38 | |
| 20260505160818 | 20 | 257 | 9.7 | 0.0 | 1.12 | 0.00 | 0.00 | 39 | |
| 20260505160318 | 20 | 136 | 8.0 | 0.0 | 1.12 | 0.00 | 0.00 | 40 | |
| 20260505153319 | 19 | 35 | 0.0 | 0.0 | 1.12 | 0.00 | 0.00 | 42 | |
| 20260505152818 | 19 | 35 | 0.0 | 0.0 | 1.12 | 0.00 | 0.00 | 42 | |
| 20260505152318 | 19 | 37 | 0.0 | 0.0 | 1.12 | 0.00 | 0.00 | 42 | |
| 20260505151817 | 19 | 13 | 8.0 | 0.0 | 1.12 | 0.00 | 0.00 | 41 | |
| 20260505151319 | 19 | 336 | 4.8 | 0.0 | 1.12 | 0.00 | 0.00 | 31 | |
| 20260505150818 | 18 | 46 | 9.7 | 0.0 | 1.12 | 0.00 | 0.00 | 39 | |
| 20260505150319 | 18 | 4 | 11.3 | 0.0 | 1.12 | 0.00 | 0.00 | 39 | |
| 20260505140319 | 18 | 336 | 6.4 | 0.0 | 1.12 | 0.00 | 0.00 | 43 | |
| 20260505124818 | 17 | 343 | 11.3 | 0.0 | 1.12 | 0.00 | 0.00 | 45 | |
| 20260505124319 | 17 | 8 | 0.0 | 0.0 | 1.12 | 0.00 | 0.00 | 45 | |
| 20260505123819 | 17 | 3 | 12.9 | 0.0 | 1.12 | 0.00 | 0.00 | 45 | |
| 20260505123319 | 17 | 353 | 14.5 | 0.0 | 1.12 | 0.00 | 0.00 | 45 | |
| 20260505122819 | 17 | 4 | 20.9 | 0.0 | 1.12 | 0.00 | 0.00 | 45 | |
| 20260505122319 | 17 | 278 | 32.2 | 0.0 | 1.12 | 0.00 | 0.00 | 44 | |
| 20260505121818 | 17 | 23 | 17.7 | 0.0 | 1.12 | 0.00 | 0.00 | 43 | |
| 20260505121318 | 17 | 325 | 16.1 | 0.0 | 1.12 | 0.00 | 0.00 | 43 | |
| 20260505120817 | 17 | 318 | 27.4 | 0.0 | 1.12 | 0.00 | 0.00 | 43 | |
| 20260505120319 | 17 | 332 | 8.0 | 0.0 | 1.12 | 0.00 | 0.00 | 42 | |
| 20260505115819 | 17 | 11 | 11.3 | 0.0 | 1.12 | 0.00 | 0.00 | 41 | |
| 20260505115318 | 17 | 294 | 9.7 | 0.0 | 1.12 | 0.00 | 0.00 | 41 | |
| 20260505114818 | 17 | 311 | 30.6 | 0.0 | 1.12 | 0.00 | 0.00 | 42 | |
| 20260505114319 | 17 | 345 | 11.3 | 0.0 | 1.12 | 0.00 | 0.00 | 35 | |
| 20260505113817 | 17 | 0 | 22.5 | 0.0 | 1.12 | 0.00 | 0.00 | 41 | |
| 20260505113319 | 17 | 281 | 16.1 | 0.0 | 1.12 | 0.00 | 0.00 | 40 | |
| 20260505112819 | 18 | 340 | 9.7 | 0.0 | 1.12 | 0.00 | 0.00 | 39 | |
| 20260505112318 | 18 | 335 | 27.4 | 0.0 | 1.12 | 0.00 | 0.00 | 39 | |
| 20260505111818 | 18 | 328 | 12.9 | 0.0 | 1.12 | 0.00 | 0.00 | 39 | |
| 20260505111319 | 18 | 290 | 11.3 | 0.0 | 1.12 | 0.00 | 0.00 | 39 | |
| 20260505110818 | 18 | 13 | 9.7 | 0.0 | 1.12 | 0.00 | 0.00 | 38 | |
| 20260505110319 | 18 | 302 | 19.3 | 0.0 | 1.12 | 0.00 | 0.00 | 39 |